[[{"header":{"parameterUnit":"m.s-1","parameterCategory":1,"la1":30.2992,"la2":30.254,"lo1":-89.0895,"lo2":-89.0443,"dy":0.0025,"dx":0.0025,"nx":19,"ny":19,"refTime":"2026-05-16T09:00:00:Z","depth":0,"parameterNumber":2,"parameterNumberName":"U-component_of_WINDS"},"data":[0,0,0,-0.1239,-0.1238,-0.1184,-0.1183,-0.1129,-0.1128,0,0,0,0,0,0,0,0,0,0,0,-0.1262,-0.1261,-0.1239,-0.1238,-0.1184,-0.1183,-0.1129,-0.1128,0,0,0,0,0,0,0,0,0,0,0,-0.1262,-0.1261,-0.1261,-0.1237,-0.1184,-0.1183,-0.1129,-0.1165,0,0,0,0,0,0,0,0,0,0,-0.1215,-0.1242,-0.1261,-0.1261,-0.1237,-0.1184,-0.1183,-0.1166,-0.1163,-0.1159,0,-0.1156,0,-0.1141,-0.1125,-0.1125,0,0,0,-0.1233,-0.1246,-0.1225,-0.1261,-0.1237,-0.1184,-0.1207,-0.1164,-0.116,-0.1154,-0.1155,-0.1152,-0.114,-0.1125,-0.1125,-0.1116,-0.1116,0,0,-0.1236,-0.1256,-0.1228,-0.1222,-0.123,-0.1208,-0.1205,-0.1161,-0.1164,-0.1154,-0.1151,-0.1139,-0.1125,-0.1125,-0.1116,-0.1116,0,0,0,-0.1248,-0.1258,-0.1238,-0.1225,-0.1214,-0.1207,-0.1203,-0.1166,-0.1158,-0.115,-0.1139,-0.1125,-0.1124,-0.1116,-0.1116,-0.1145,0,0,0,-0.1249,-0.1265,-0.124,-0.1251,-0.1215,-0.1189,-0.1209,-0.1161,-0.1155,-0.1139,-0.1125,-0.1124,-0.1115,-0.1116,-0.1144,-0.1156,0,0,0,-0.1263,-0.1266,-0.1261,-0.1253,-0.123,-0.1189,-0.1178,-0.1159,-0.1149,-0.1125,-0.1124,-0.1115,-0.1116,-0.1143,-0.1154,-0.1161,0,0,0,-0.1283,-0.1287,-0.1262,-0.1262,-0.1231,-0.1207,-0.1178,-0.116,-0.1143,-0.1124,-0.1115,-0.1116,-0.1142,-0.1153,-0.116,-0.1171,-0.1177,0,0,-0.13,-0.129,-0.1288,-0.1264,-0.125,-0.1214,-0.1204,-0.117,-0.115,-0.1129,-0.1129,-0.1144,-0.1154,-0.1161,-0.1203,-0.1208,0,0,0,-0.13,-0.13,-0.1292,-0.1276,-0.125,-0.123,-0.1195,-0.1182,-0.1163,-0.1143,-0.1147,-0.1152,-0.1156,-0.116,-0.1165,-0.1167,-0.1118,-0.1118,-0.1118,-0.1353,-0.1326,-0.1323,-0.1291,-0.1276,-0.1241,-0.1228,-0.1205,-0.1183,-0.1184,-0.1178,-0.1207,-0.1213,-0.1216,-0.1219,-0.1181,-0.1181,-0.1181,-0.1181,-0.1376,-0.1371,-0.1342,-0.1327,-0.13,-0.1289,-0.1256,-0.124,-0.1227,-0.1209,-0.121,-0.1194,-0.1222,-0.1224,-0.1183,-0.1183,-0.1183,-0.1182,-0.1182,-0.1408,-0.1402,-0.1386,-0.1363,-0.1348,-0.1315,-0.1304,-0.1279,-0.1256,-0.1257,-0.125,-0.1249,-0.1247,-0.1255,-0.1255,-0.1255,-0.1255,-0.1256,-0.1256,-0.1449,-0.1431,-0.1424,-0.1397,-0.1385,-0.1366,-0.1331,-0.1319,-0.13,-0.1283,-0.1283,-0.1262,-0.1229,-0.1222,-0.1257,-0.1257,-0.1257,-0.1257,-0.1256,-0.1485,-0.1473,-0.1462,-0.145,-0.1418,-0.1406,-0.1374,-0.1352,-0.1339,-0.1335,-0.1313,-0.1292,-0.1281,-0.1277,-0.1272,-0.1317,-0.1317,-0.1317,-0.1317,-0.1514,-0.1505,-0.149,-0.1472,-0.1452,-0.1423,-0.1415,-0.1388,-0.136,-0.135,-0.134,-0.133,-0.1327,-0.1318,-0.1313,-0.1308,-0.1361,-0.1361,-0.1361,-0.1535,-0.1524,-0.152,-0.1491,-0.1464,-0.1443,-0.1434,-0.1417,-0.1382,-0.1363,-0.1343,-0.1341,-0.1325,-0.132,-0.1302,-0.1295,-0.1285,0,0]},{"header":{"parameterUnit":"m.s-1","parameterCategory":1,"la1":30.2992,"la2":30.254,"lo1":-89.0895,"lo2":-89.0443,"dy":0.0025,"dx":0.0025,"nx":19,"ny":19,"refTime":"2026-05-16T09:00:00:Z","depth":0,"parameterNumber":3,"parameterNumberName":"V-component_of_WINDS"},"data":[0,0,0,4.728,4.7283,4.7395,4.7395,4.7545,4.7547,0,0,0,0,0,0,0,0,0,0,0,4.7256,4.7257,4.728,4.7283,4.7395,4.7395,4.7545,4.7547,0,0,0,0,0,0,0,0,0,0,0,4.7255,4.7257,4.7258,4.7284,4.7394,4.7395,4.7545,4.7457,0,0,0,0,0,0,0,0,0,0,4.7347,4.7334,4.7256,4.7258,4.7284,4.7394,4.7395,4.7453,4.7462,4.7499,0,4.7537,0,4.7545,4.7558,4.7558,0,0,0,4.7276,4.7326,4.7348,4.7259,4.7285,4.7394,4.7342,4.7458,4.7469,4.7512,4.7539,4.7544,4.7547,4.7559,4.7559,4.7799,4.78,0,0,4.727,4.728,4.734,4.7356,4.7343,4.7339,4.7346,4.7465,4.7493,4.754,4.7548,4.755,4.756,4.7561,4.7797,4.7799,0,0,0,4.7257,4.7276,4.7295,4.735,4.7369,4.7342,4.735,4.7488,4.7494,4.7549,4.7551,4.7561,4.7563,4.7796,4.7798,4.7877,0,0,0,4.7253,4.7268,4.7293,4.73,4.7368,4.7431,4.7372,4.7486,4.7499,4.7551,4.7561,4.7564,4.7794,4.7797,4.7872,4.7913,0,0,0,4.7245,4.7267,4.7287,4.73,4.7349,4.7429,4.7441,4.7488,4.75,4.7558,4.7565,4.7793,4.7797,4.7867,4.7905,4.7976,0,0,0,4.724,4.7357,4.7288,4.7419,4.7348,4.7479,4.744,4.7537,4.7596,4.7562,4.7795,4.7798,4.7865,4.79,4.7971,4.8037,4.8066,0,0,4.7393,4.7376,4.7452,4.7393,4.7539,4.7461,4.7616,4.7661,4.7657,4.7751,4.7757,4.7874,4.7904,4.7975,4.823,4.8253,0,0,0,4.7503,4.7558,4.7594,4.7652,4.7689,4.7723,4.7743,4.7759,4.7838,4.7709,4.792,4.7938,4.7979,4.801,4.8029,4.8062,4.7813,4.7813,4.7813,4.7734,4.7722,4.7845,4.7846,4.7902,4.792,4.7962,4.7986,4.7959,4.8009,4.8036,4.8192,4.8229,4.8243,4.8278,4.8072,4.8072,4.8072,4.8072,4.7955,4.8028,4.7987,4.8092,4.8077,4.8164,4.8184,4.8161,4.8237,4.8172,4.8207,4.8135,4.8269,4.8299,4.8078,4.8077,4.8076,4.8076,4.8075,4.8103,4.8135,4.8153,4.8231,4.8293,4.8288,4.8362,4.8347,4.8333,4.8368,4.8392,4.8391,4.8385,4.8381,4.8382,4.8382,4.8383,4.8383,4.8383,4.8248,4.8265,4.8331,4.8378,4.841,4.845,4.8466,4.8497,4.8526,4.8508,4.8508,4.8473,4.8286,4.8238,4.8392,4.839,4.8389,4.8388,4.8388,4.8473,4.8419,4.8521,4.8553,4.8603,4.8663,4.8641,4.8704,4.8726,4.8762,4.8719,4.8585,4.8565,4.8549,4.8509,4.8724,4.8724,4.8724,4.8724,4.8596,4.8585,4.8683,4.8734,4.8783,4.8773,4.8883,4.8895,4.8898,4.891,4.8877,4.8823,4.8808,4.8797,4.8776,4.8738,4.9006,4.9007,4.9007,4.8732,4.8724,4.8823,4.8826,4.8863,4.8894,4.8996,4.9054,4.9047,4.9018,4.8919,4.8907,4.8819,4.8792,4.876,4.8728,4.8658,0,0]}]]